Hourly Data Report for September 24, 2017

All times are specified in Local Standard Time (LST). Add 1 hour to adjust for Daylight Saving Time where and when it is observed.

ST. STEPHEN
NEW BRUNSWICK

45°12'36.600" N
67°15'10.300" W
26.10 m
8104935
71607
WSS

Download Data

Hourly Data (September 2017)
Hourly Data Report for September 24, 2017
Temp Definition
°C
Dew Point Temp Definition
°C
Rel Hum Definition
%
Wind Dir Definition
10's deg

Wind Spd Definition
km/h
Visibility Definition
km
Stn Press Definition
kPa
Hmdx Definition


Wind Chill Definition


Weather Definition


TIME
00:00 14.2 13.4 95   0   101.28     LegendNANA
01:00 13.6 12.8 95 6 1   101.26     LegendNANA
02:00 12.9 12.2 96 5 1   101.28     LegendNANA
03:00 12.4 11.7 95   0   101.29     LegendNANA
04:00 12.0 11.3 96 33 1   101.31     LegendNANA
05:00 11.6 10.9 96   0   101.34     LegendNANA
06:00 11.7 11.1 96   0   101.41     LegendNANA
07:00 11.9 11.3 96   0   101.44     LegendNANA
08:00 16.2 14.6 90   0   101.45     LegendNANA
09:00 19.0 14.2 74 14 6   101.41     LegendNANA
10:00 21.3 14.9 67 11 4   101.38 25   LegendNANA
11:00 23.9 15.9 61 14 4   101.33 28   LegendNANA
12:00 26.5 17.3 57 18 8   101.25 32   LegendNANA
13:00 28.5 18.3 54 22 9   101.17 35   LegendNANA
14:00 29.7 18.1 50 25 11   101.19 36   LegendNANA
15:00 30.7 18.0 47 25 12   101.06 37   LegendNANA
16:00 31.1 18.5 47 25 9   101.05 37   LegendNANA
17:00 30.5 19.2 51 25 7   101.07 37   LegendNANA
18:00 24.7 18.3 68 6 4   101.12 31   LegendNANA
19:00 22.5 20.5 89 0 1   101.18 30   LegendNANA
20:00 21.5 20.3 93 0 1   101.24 29   LegendNANA
21:00 20.8 19.8 94   0   101.24 28   LegendNANA
22:00 19.8 19.0 95   0   101.26     LegendNANA
23:00 18.9 18.2 96   0   101.26     LegendNANA

Notes on Data Quality.

Legend

  • E = Estimated
  • M = Missing
  • NA = Not Available
  • ‡ = Partner data that is not subject to review by the National Climate Archives
Date modified: